STARLINK-3095, 49160

Orbit data source: Space-Track

STARLINK-3095, 49160 is a payload satellite owned by SpaceX/Seattle (US) in LEO that was launched on Tue, 14 Sep 2021 UTC via an FALCON 9 launch vehicle from the Air Force Western Test Range (AFWTR). Payload-class satellites include a variety of spacecraft equipped with specific instruments for various scientific and technological missions. These include communications satellites like Starlink; space stations such as the ISS; scientific satellites like the Hubble; Earth observation satellites from companies like Planet Labs, Umbra, and HawkEye 360; GPS; miniature CubeSats for education and research; and military/defense satellites.

Loading next visibility...
Identifier
49160, 2021-082AG
Orbit
LEO
Country
Flag of USUS
Related business
Manufacturer
SpaceX/Seattle
Mission
Operational Commercial Communications
Bus & Motor
STARLINK, Unknown motor
Mass
297 kg wet, ~275 kg dry
Launch date (UTC)
2021-09-14 (4 years ago)
Launch vehicle
FALCON 9
Launch site
Air Force Western Test Range (AFWTR)
Object type
Payload
Rocket body
Debris
Shape & HBR
Box + 1 Pan, 10.1 m
Radar Cross Section
13.562 m², Large (>1 m²)

Expand to show TLE details & history
Last TLE update: 12 hours ago

TLE from 12 hours ago
0 STARLINK-3095
1 49160U 21082AG  25310.57101920  .00000993  00000-0  90996-4 0  9997
2 49160  70.0004 244.8597 0002551 288.8033  71.2849 14.98336394228606
Epoch: 2025-11-06T13:42Z
TLE epoch observation values (Epoch: 2025-11-06T13:42:16.058Z)
Latitude
-0.00007°
Longitude
-6.73466°
Altitude
573.891 km
Speed
7.574 km/s
True Right ascension
16h 19m 26s
True Declination
0° 00' 00"
Sunlit
Object was in daylight at epoch
Visualization orbit readout
Latitude
Unknown
Longitude
Unknown
Altitude
Unknown
Speed
Unknown
Apparent Right ascension
Unknown
Apparent Declination
Unknown
Sunlit
N/A
Visualization observer readout
Local Sidereal Time
21:22:43
Azimuth
Unknown
Elevation
Unknown
Doppler factor
Unknown
Orbital elements
Apogee altitude
571.757 km
Perigee altitude
568.212 km
Semi-major axis
6,948.121 km
Eccentricity
0.00026
Inclination
70.0004°
RAAN
244.8597°
Arg. of periapsis
288.8033°
True anomaly
71.31259°
Mean anomaly
71.2849°
Eccentric anomaly
71.29874°
Mean motion
3.7475 °/min
Orbital period
96.06 mins
BSTAR
0.000090996
Loading maneuver chart data...
Computing Atmospheric mass density...

Documentation

Showing up to 5 results
|